Voltar ao catálogo

STARLINK-11375

AtivoComunicaçõesVLEO
NORAD 61577·PAYLOAD·🇺🇸 United States

Lançado Oct 18, 2024 de Cape Canaveral Space Force Station

Loading…

Próximas Passagens (próximas 24 horas)

TLE

AtualizadoSource: CelesTrak SupGP

Época: Sep 14, 2026, 22:37 UTC

1 61577C 24187D   26257.94284722  .00106940  00000+0  88171-3 0  2572
2 61577  53.1574  83.1576 0001086  87.6055  22.2841 15.69634153    12

Acompanhe STARLINK-11375 em tempo real com AllMySat

Download on the App Store